Location: ??????????
(54.8537°N, 38.8755°E)
Time: 15:14:39
(UTC+00:00)

SR - All Passes

Search period start: 13 September 2024 00:00
Search period end: 23 September 2024 00:00
Orbit: 579 x 855 km, 66.7° (Epoch: 12 September)

Date Brightness Start Highest point End Pass type
(mag) Time Alt. Az. Time Alt. Az. Time Alt. Az.
13 Sep - 10:13:34 10° SE 10:15:50 14° ESE 10:18:07 10° ENE daylight
13 Sep - 11:52:40 10° SW 11:56:55 82° SE 12:01:14 10° NE daylight
13 Sep - 13:35:30 10° W 13:39:10 28° NNW 13:42:57 10° NNE daylight
13 Sep - 15:19:20 10° NW 15:22:19 18° N 15:25:24 10° NE daylight
13 Sep - 17:01:48 10° NNW 17:05:31 26° NNE 17:09:25 10° E visible
13 Sep - 18:43:25 10° NW 18:47:56 78° NE 18:52:47 10° SE visible
13 Sep - 20:25:46 10° WNW 20:29:21 23° WSW 20:33:08 10° SSW visible
14 Sep - 11:00:08 10° SSW 11:04:08 42° ESE 11:08:12 10° NE daylight
14 Sep - 12:41:57 10° WSW 12:45:58 40° NW 12:50:06 10° NE daylight
14 Sep - 14:25:44 10° WNW 14:28:51 19° N 14:32:04 10° NE daylight
14 Sep - 16:08:49 10° NW 16:12:08 20° NNE 16:15:36 10° ENE daylight
14 Sep - 17:50:34 10° NW 17:54:55 47° NE 17:59:33 10° ESE visible
14 Sep - 19:32:25 10° NW 19:36:42 41° WSW 19:41:19 10° S visible
15 Sep - 10:08:14 10° SSE 10:11:31 22° ESE 10:14:50 10° ENE daylight
15 Sep - 11:48:41 10° SW 11:52:54 68° NW 11:57:13 10° NE daylight
15 Sep - 13:31:59 10° WNW 13:35:26 23° NNW 13:38:59 10° NNE daylight
15 Sep - 15:15:37 10° NW 15:18:41 18° N 15:21:50 10° NE daylight
15 Sep - 16:57:43 10° NW 17:01:44 32° NNE 17:05:58 10° E visible
15 Sep - 18:39:23 10° NW 18:43:54 74° SW 18:48:48 10° SSE visible
15 Sep - 20:22:24 10° WNW 20:25:05 15° WSW 20:27:50 10° SW visible
16 Sep - 09:17:49 10° SE 09:19:04 11° ESE 09:20:19 10° E daylight
16 Sep - 10:55:47 10° SSW 10:59:58 66° SE 11:04:16 10° NE daylight
16 Sep - 12:38:17 10° W 12:42:06 31° NNW 12:46:02 10° NE daylight
16 Sep - 14:22:09 10° NW 14:25:10 18° N 14:28:17 10° NE daylight
16 Sep - 16:04:48 10° NNW 16:08:24 24° NNE 16:12:11 10° ENE visible
16 Sep - 17:46:27 10° NW 17:50:57 65° NE 17:55:47 10° SE visible
16 Sep - 19:28:35 10° WNW 19:32:30 28° WSW 19:36:40 10° S visible
17 Sep - 10:03:24 10° S 10:07:13 34° ESE 10:11:06 10° NE daylight
17 Sep - 11:44:47 10° WSW 11:48:54 48° NW 11:53:07 10° NE daylight
17 Sep - 13:28:26 10° WNW 13:31:40 20° NNW 13:35:00 10° NE daylight
17 Sep - 15:11:44 10° NW 15:14:57 19° NNE 15:18:19 10° ENE daylight
17 Sep - 16:53:35 10° NW 16:57:50 41° NE 17:02:23 10° ESE visible
17 Sep - 18:35:20 10° NW 18:39:46 50° SW 18:44:32 10° SSE visible
18 Sep - 09:11:46 10° SSE 09:14:38 18° ESE 09:17:30 10° ENE daylight
18 Sep - 10:51:36 10° SW 10:55:50 83° NW 11:00:11 10° NE daylight
18 Sep - 12:34:39 10° W 12:38:14 25° NNW 12:41:56 10° NNE daylight
18 Sep - 14:18:24 10° NW 14:21:26 18° N 14:24:34 10° NE daylight
18 Sep - 16:00:41 10° NNW 16:04:34 28° NNE 16:08:41 10° E visible
18 Sep - 17:42:18 10° NW 17:46:52 89° SW 17:51:48 10° SE visible
18 Sep - 19:24:54 10° WNW 19:28:10 19° WSW 19:31:35 10° SSW visible
19 Sep - 09:58:50 10° SSW 10:02:56 52° SE 10:07:08 10° NE daylight
19 Sep - 11:40:59 10° W 11:44:54 35° NNW 11:48:58 10° NE daylight
19 Sep - 13:24:48 10° NW 13:27:53 19° N 13:31:04 10° NE daylight
19 Sep - 15:07:40 10° NW 15:11:09 22° NNE 15:14:48 10° ENE daylight
19 Sep - 16:49:22 10° NW 16:53:49 55° NE 16:58:36 10° ESE visible
19 Sep - 18:31:20 10° NW 18:35:30 34° WSW 18:39:58 10° S visible
20 Sep - 09:06:37 10° S 09:10:12 27° ESE 09:13:50 10° ENE daylight
20 Sep - 10:47:32 10° WSW 10:51:42 57° NW 10:56:01 10° NE daylight
20 Sep - 12:31:00 10° WNW 12:34:22 22° NNW 12:37:50 10° NE daylight
20 Sep - 14:14:29 10° NW 14:17:38 19° N 14:20:55 10° NE daylight
20 Sep - 15:56:27 10° NW 16:00:36 36° NNE 16:05:03 10° E visible
20 Sep - 17:38:08 10° NW 17:42:40 62° SW 17:47:33 10° SSE visible
20 Sep - 19:21:44 10° W 19:23:42 12° WSW 19:25:43 10° SW visible
21 Sep - 08:15:24 10° SE 08:17:37 14° ESE 08:19:51 10° ENE daylight
21 Sep - 09:54:26 10° SW 09:58:40 81° SE 10:03:01 10° NE daylight
21 Sep - 11:37:13 10° W 11:40:55 28° NNW 11:44:46 10° NE daylight
21 Sep - 13:21:01 10° NW 13:24:03 18° N 13:27:12 10° NE daylight
21 Sep - 15:03:29 10° NNW 15:07:15 26° NNE 15:11:13 10° E daylight
21 Sep - 16:45:07 10° NW 16:49:41 77° NE 16:54:37 10° SE visible
21 Sep - 18:27:25 10° WNW 18:31:07 23° WSW 18:35:01 10° SSW visible
22 Sep - 09:01:48 10° SSW 09:05:47 42° ESE 09:09:51 10° NE daylight
22 Sep - 10:43:33 10° WSW 10:47:35 41° NW 10:51:46 10° NE daylight
22 Sep - 12:27:18 10° WNW 12:30:28 19° N 12:33:46 10° NE daylight
22 Sep - 14:10:23 10° NW 14:13:46 21° NNE 14:17:17 10° ENE daylight
22 Sep - 15:52:09 10° NW 15:56:32 47° NE 16:01:15 10° ESE visible
22 Sep - 17:33:59 10° NW 17:38:21 42° WSW 17:43:03 10° SSE visible
